Fort Madison, IA

9:46 PM CDT on October 23, 2017 (GMT -0500)
Fort Madison Municipal

Weather History for KFSW - February, 2014

Change the Weather History Date:

Thursday, February 20, 2014

  Actual Average Record
Temperature  
Mean Temperature 42 °F -  
Max Temperature 50 °F 41 °F 62 °F (1981)
Min Temperature 33 °F 21 °F -3 °F (1979)
Degree Days  
Heating Degree Days 22    
Moisture  
Dew Point 35 °F    
Average Humidity 94    
Maximum Humidity 100    
Minimum Humidity 75    
Precipitation  
Precipitation 2.64 in - - ()
Sea Level Pressure  
Sea Level Pressure 29.51 in    
Wind  
Wind Speed 12 mph (SSE)    
Max Wind Speed 28 mph    
Max Gust Speed 37 mph    
Visibility 6 miles    
Events Fog , Rain , Snow    
Averages and records for this station are not official NWS values.
T = Trace of Precipitation, MM = Missing Value Source: NWS Daily Summary

Daily Weather History Graph

Daily Weather History Graph

Search for Another Location

Airport or City:

Trip Planner

Search our weather history database for the weather conditions in past years. The results will help you decide how hot, cold, wet, or windy it might be!

Date:

Astronomy

Feb. 20, 2014 Rise Set
Actual Time 6:52 AM CST 5:46 PM CST
Civil Twilight 6:24 AM CST 6:14 PM CST
Nautical Twilight 5:52 AM CST 6:45 PM CST
Astronomical Twilight 5:21 AM CST 7:17 PM CST
Moon 11:43 PM CST (2/20) 9:33 AM CST (2/20)
Length of Visible Light 11h 49m
Length of Day
10h 53m
Waning Gibbous, 70% of the Moon is Illuminated
Feb 20
Waning Gibbous
Feb 22
Last Quarter
Mar 1
New
Mar 8
First Quarter
Mar 16
Full

Hourly Weather History & Observations

Time (CST) Temp. Windchill Dew Point Humidity Pressure Visibility Wind Dir Wind Speed Gust Speed Precip Events Conditions
12:15 AM 37.4 °F 33.8 °F 37.4 °F 100% 29.76 in 4.0 mi East 4.6 mph - 0.06 in Rain Rain
12:35 AM 37.4 °F 32.8 °F 37.4 °F 100% 29.74 in 4.0 mi East 5.8 mph - 0.12 in Rain Heavy Rain
12:55 AM 35.6 °F 29.2 °F 35.6 °F 100% 29.72 in 1.8 mi East 8.1 mph - 0.25 in Rain Rain
1:15 AM 37.4 °F 31.4 °F 37.4 °F 100% 29.68 in 7.0 mi East 8.1 mph 21.9 mph 0.04 in Rain Light Rain
1:35 AM 37.4 °F 33.8 °F 37.4 °F 100% 29.70 in 5.0 mi NNE 4.6 mph - 0.10 in Rain Rain
1:55 AM 35.6 °F 28.6 °F 35.6 °F 100% 29.70 in 0.5 mi East 9.2 mph - 0.23 in Snow Snow
2:15 AM 37.4 °F 29.8 °F 37.4 °F 100% 29.69 in 0.5 mi ESE 11.5 mph - 0.16 in Snow Light Snow
3:15 AM 35.6 °F 26.6 °F 35.6 °F 100% 29.64 in 4.0 mi ESE 13.8 mph - 0.09 in Rain Light Rain
3:55 AM 37.4 °F 28.2 °F 37.4 °F 100% 29.58 in 4.0 mi East 16.1 mph - 0.26 in Rain Rain
4:15 AM 37.4 °F 28.5 °F 37.4 °F 100% 29.58 in 10.0 mi East 15.0 mph - N/A   Overcast
4:35 AM 37.4 °F 27.8 °F 37.4 °F 100% 29.57 in 10.0 mi East 17.3 mph - 0.01 in Rain Light Rain
4:55 AM 37.4 °F 28.5 °F 37.4 °F 100% 29.56 in 10.0 mi East 15.0 mph 20.7 mph 0.03 in   Overcast
5:15 AM 37.4 °F 29.3 °F 37.4 °F 100% 29.57 in 10.0 mi East 12.7 mph 19.6 mph N/A   Overcast
6:35 AM 37.4 °F 30.3 °F 37.4 °F 100% 29.53 in 7.0 mi ENE 10.4 mph - N/A   Overcast
6:55 AM 35.6 °F 27.5 °F 35.6 °F 100% 29.52 in 5.0 mi East 11.5 mph - N/A   Overcast
7:35 AM 35.6 °F 26.6 °F 35.6 °F 100% 29.50 in 4.0 mi East 13.8 mph 17.3 mph N/A   Overcast
8:15 AM 35.6 °F 27.5 °F 35.6 °F 100% 29.50 in 3.0 mi East 11.5 mph - 0.01 in Rain Light Rain
8:35 AM 35.6 °F 27.5 °F 35.6 °F 100% 29.48 in 2.0 mi East 11.5 mph - 0.07 in Rain Light Rain
8:55 AM 35.6 °F 28.0 °F 35.6 °F 100% 29.49 in 1.0 mi North 10.4 mph 16.1 mph 0.23 in Snow Light Snow
9:35 AM 35.6 °F 27.5 °F 35.6 °F 100% 29.46 in 1.0 mi East 11.5 mph - 0.81 in Rain Light Rain
9:55 AM 35.6 °F 28.6 °F 35.6 °F 100% 29.46 in 1.5 mi East 9.2 mph - 0.87 in Rain Light Rain
10:35 AM 35.6 °F 28.0 °F 35.6 °F 100% 29.42 in 1.0 mi East 10.4 mph - 0.03 in Rain Light Rain
10:55 AM 35.6 °F 28.6 °F 35.6 °F 100% 29.38 in 1.2 mi East 9.2 mph - 0.04 in   Overcast
12:15 PM 39.2 °F 31.2 °F 39.2 °F 100% 29.28 in 0.2 mi East 13.8 mph - N/A Fog Fog
1:35 PM 39.2 °F 31.6 °F 39.2 °F 100% 29.17 in 0.2 mi East 12.7 mph 16.1 mph N/A Fog Fog
2:15 PM 41.0 °F 39.0 °F 41.0 °F 100% 29.15 in 0.2 mi SE 3.5 mph - 0.06 in Rain Heavy Rain
2:35 PM 50.0 °F - 50.0 °F 100% 29.17 in 2.5 mi SSW 16.1 mph 36.8 mph 0.57 in Rain Light Rain
5:15 PM 37.4 °F 26.6 °F 35.6 °F 93% 29.36 in 10.0 mi WSW 21.9 mph 32.2 mph N/A   Overcast
5:35 PM 37.4 °F 26.1 °F 35.6 °F 93% 29.38 in 10.0 mi WSW 24.2 mph 36.8 mph N/A   Overcast
5:55 PM 37.4 °F 27.2 °F 35.6 °F 93% 29.42 in 10.0 mi West 19.6 mph 34.5 mph N/A   Overcast
6:15 PM 37.4 °F 25.4 °F 35.6 °F 93% 29.44 in 10.0 mi West 27.6 mph 35.7 mph N/A   Overcast
6:35 PM 37.4 °F 25.4 °F 35.6 °F 93% 29.46 in 10.0 mi West 27.6 mph 36.8 mph N/A   Overcast
6:55 PM 37.4 °F 26.1 °F 33.8 °F 87% 29.48 in 10.0 mi West 24.2 mph 35.7 mph N/A   Overcast
7:15 PM 37.4 °F 26.6 °F 33.8 °F 87% 29.49 in 10.0 mi West 21.9 mph 33.4 mph N/A   Mostly Cloudy
7:35 PM 37.4 °F 27.2 °F 33.8 °F 87% 29.51 in 10.0 mi West 19.6 mph 29.9 mph N/A   Scattered Clouds
7:55 PM 37.4 °F 26.4 °F 33.8 °F 87% 29.52 in 10.0 mi West 23.0 mph 34.5 mph N/A   Scattered Clouds
8:15 PM 37.4 °F 26.6 °F 33.8 °F 87% 29.53 in 10.0 mi West 21.9 mph 32.2 mph N/A   Mostly Cloudy
8:35 PM 37.4 °F 28.2 °F 33.8 °F 87% 29.53 in 10.0 mi WSW 16.1 mph 26.5 mph N/A   Scattered Clouds
8:55 PM 37.4 °F 28.2 °F 33.8 °F 87% 29.54 in 10.0 mi WSW 16.1 mph 27.6 mph N/A   Clear
9:15 PM 37.4 °F 28.2 °F 33.8 °F 87% 29.55 in 10.0 mi WSW 16.1 mph 26.5 mph N/A   Mostly Cloudy
9:35 PM 37.4 °F 29.3 °F 33.8 °F 87% 29.55 in 10.0 mi WSW 12.7 mph 25.3 mph N/A   Overcast
9:55 PM 37.4 °F 27.2 °F 32.0 °F 81% 29.55 in 10.0 mi West 19.6 mph 34.5 mph N/A   Mostly Cloudy
10:15 PM 35.6 °F 26.2 °F 30.2 °F 81% 29.56 in 10.0 mi WSW 15.0 mph 24.2 mph N/A   Scattered Clouds
10:35 PM 35.6 °F 26.6 °F 30.2 °F 81% 29.57 in 10.0 mi WSW 13.8 mph 27.6 mph N/A   Scattered Clouds
10:55 PM 35.6 °F 25.5 °F 30.2 °F 81% 29.56 in 10.0 mi West 17.3 mph 26.5 mph N/A   Scattered Clouds
11:15 PM 35.6 °F 23.7 °F 30.2 °F 81% 29.55 in 10.0 mi West 24.2 mph 29.9 mph N/A   Scattered Clouds
11:35 PM 35.6 °F 24.2 °F 28.4 °F 75% 29.55 in 10.0 mi West 21.9 mph 34.5 mph N/A   Mostly Cloudy
11:55 PM 33.8 °F 22.5 °F 26.6 °F 75% 29.55 in 10.0 mi West 19.6 mph 33.4 mph N/A   Mostly Cloudy